Home   Weather   Galveston   Past weeks

Flag for USA Past Weather in Galveston, Texas, USA — Yesterday and Last 2 Weeks

Now
84 °F

Sunny.


Feels Like: 95 °F
Forecast: 79 / 89 °F
Wind: 9 mph from Northeast

Location: Scholes Field

Current Time: Aug 31, 2016 at 9:32:50 AM

Latest Report: Aug 31, 2016 at 8:52 AM


Visibility: 10 mi

Pressure: 29.91 "Hg

Humidity: 83%

Dew Point: 78 °F

Location of GalvestonLocation

Past Weather in Galveston — Graph

°F

Galveston Temperature Yesterday

Maximum temperature yesterday: 87 °F (at 1:52 PM)
Minimum temperature yesterday: 78 °F (at 5:52 AM)
Average temperature yesterday: 83 °F

High & Low Weather Summary for the Past Weeks

 TemperatureHumidityPressure
High90 °F (Aug 22, 11:52 AM)100% (Aug 17, 6:52 AM)30.18 "Hg (Aug 17, 6:52 AM)
Low74 °F (Aug 16, 12:00 PM)61% (Aug 22, 11:52 AM)29.85 "Hg (Aug 20, 6:52 PM)
Average83 °F84%30.00 "Hg
* Reported Aug 16 7:52 AM — Aug 31 7:52 AM, Galveston, Weather by CustomWeather, © 2016

Note: Actual official high and low records may vary slightly from our data, if they occured in-between our weather recording intervals... More about our weather records

Advertising

Galveston Weather History for the Previous 24 Hours

Scroll right to see more
 ConditionsComfort  
Time TempWeatherWind HumidityBarometerVisibility
7:52 AM
Wed, Aug 31
83 °FClear.6 mph85%29.91 "Hg10 mi
6:52 AM81 °FPassing clouds.No wind82%29.90 "Hg10 mi
5:52 AM81 °FPassing clouds.5 mph91%29.90 "Hg10 mi
4:52 AM81 °FPassing clouds.5 mph88%29.91 "Hg10 mi
3:52 AM80 °FLight rain. Passing clouds.6 mph87%29.91 "Hg10 mi
2:52 AM80 °FPartly cloudy.14 mph87%29.92 "Hg10 mi
1:52 AM81 °FPassing clouds.No wind88%29.92 "Hg10 mi
12:52 AM82 °FClear.3 mph85%29.92 "Hg10 mi
11:52 PM
Tue, Aug 30
82 °FClear.3 mph88%29.92 "Hg10 mi
10:52 PM82 °FClear.3 mph88%29.93 "Hg10 mi
9:52 PM83 °FClear.6 mph85%29.92 "Hg10 mi
8:52 PM84 °FClear.No wind77%29.90 "Hg10 mi
7:52 PM85 °FSunny.No wind75%29.89 "Hg10 mi
6:52 PM85 °FSunny.5 mph75%29.88 "Hg10 mi
5:52 PM85 °FSunny.8 mph75%29.89 "Hg10 mi
4:52 PM85 °FPassing clouds.9 mph72%29.90 "Hg10 mi
3:52 PM87 °FPassing clouds.13 mph69%29.91 "Hg10 mi
2:52 PM87 °FScattered clouds.8 mph72%29.93 "Hg10 mi
1:52 PM87 °FScattered clouds.12 mph72%29.95 "Hg10 mi
12:52 PM86 °FPassing clouds.13 mph77%29.96 "Hg10 mi
11:52 AM86 °FPassing clouds.17 mph75%29.97 "Hg10 mi
10:52 AM86 °FSunny.13 mph72%29.97 "Hg10 mi
9:52 AM81 °FSunny.12 mph82%29.96 "Hg10 mi
Weather by CustomWeather, © 2016

See weather overviewHow to use our weather pages